Nampa, ID

11:51 PM MST on December 05, 2019 (GMT -0700)
Nampa

Weather History for KMAN - October, 2019

Change the Weather History Date:

Saturday, October 26, 2019

  Actual Average (KBOI) Record (KBOI)
Temperature  
Mean Temperature 44 °F -  
Max Temperature 51 °F 60 °F 81 °F (1891)
Min Temperature 37 °F 36 °F 19 °F (1878)
Degree Days  
Heating Degree Days 21    
Moisture  
Dew Point 27 °F    
Average Humidity 52    
Maximum Humidity 87    
Minimum Humidity 35    
Precipitation  
Precipitation 0.00 in - - ()
Sea Level Pressure  
Sea Level Pressure 30.05 in    
Wind  
Wind Speed 10 mph (NW)    
Max Wind Speed 21 mph    
Max Gust Speed 28 mph    
Visibility 9 miles    
Events      
Averages and records for this station are not official NWS values.
T = Trace of Precipitation, MM = Missing Value Source: NWS Daily Summary

Daily Weather History Graph

Daily Weather History Graph

Search for Another Location

Airport or City:

Astronomy

Oct. 26, 2019 Rise Set
Actual Time 8:13 AM MDT 6:45 PM MDT
Civil Twilight 7:44 AM MDT 7:15 PM MDT
Nautical Twilight 7:10 AM MDT 7:48 PM MDT
Astronomical Twilight 6:37 AM MDT 8:21 PM MDT
Moon 6:08 AM MDT (10/26) 6:28 PM MDT (10/26)
Length of Visible Light 11h 30m
Length of Day
10h 31m
Waning Crescent, 3% of the Moon is Illuminated
Oct 26
Waning Crescent
Oct 27
New
Nov 4
First Quarter
Nov 12
Full
Nov 19
Last Quarter

Hourly Weather History & Observations

Time (MDT) Temp. Windchill Dew Point Humidity Pressure Visibility Wind Dir Wind Speed Gust Speed Precip Events Conditions
12:15 AM 41.0 °F - 33.8 °F 76% 30.00 in 8.0 mi Calm Calm - N/A   Clear
12:35 AM 42.8 °F - 33.8 °F 70% 30.00 in 4.0 mi Calm Calm - N/A   Haze
12:55 AM 39.2 °F - 35.6 °F 87% 30.00 in 10.0 mi Calm Calm - N/A   Clear
1:15 AM 39.2 °F - 33.8 °F 81% 30.00 in 10.0 mi Calm Calm - N/A   Clear
1:35 AM 44.6 °F 41.4 °F 32.0 °F 61% 30.02 in 1.8 mi North 5.8 mph - N/A   Haze
1:55 AM 44.6 °F 42.2 °F 32.0 °F 61% 30.02 in 1.8 mi North 4.6 mph - N/A   Haze
2:15 AM 42.8 °F - 30.2 °F 61% 30.02 in 1.8 mi Calm Calm - N/A   Haze
2:35 AM 42.8 °F 41.1 °F 30.2 °F 61% 30.02 in 2.0 mi NW 3.5 mph - N/A   Haze
2:55 AM 41.0 °F 39.0 °F 30.2 °F 65% 30.03 in 1.5 mi WNW 3.5 mph - N/A   Haze
3:15 AM 41.0 °F 37.1 °F 32.0 °F 70% 30.03 in 2.0 mi West 5.8 mph - N/A   Haze
3:35 AM 42.8 °F 39.3 °F 30.2 °F 61% 30.04 in 8.0 mi WNW 5.8 mph - N/A   Overcast
3:55 AM 44.6 °F 39.7 °F 30.2 °F 57% 30.05 in 10.0 mi WNW 9.2 mph - N/A   Overcast
4:15 AM 46.4 °F 41.1 °F 32.0 °F 57% 30.04 in 10.0 mi NW 11.5 mph - N/A   Overcast
4:35 AM 48.2 °F - 30.2 °F 50% 30.05 in 10.0 mi NW 11.5 mph - N/A   Overcast
4:55 AM 48.2 °F - 28.4 °F 46% 30.05 in 10.0 mi NW 16.1 mph 23.0 mph N/A   Overcast
5:15 AM 48.2 °F - 28.4 °F 46% 30.06 in 10.0 mi NW 15.0 mph 24.2 mph N/A   Overcast
5:35 AM 46.4 °F 40.7 °F 26.6 °F 46% 30.06 in 10.0 mi WNW 12.7 mph 20.7 mph N/A   Overcast
5:55 AM 46.4 °F 40.4 °F 26.6 °F 46% 30.06 in 10.0 mi NNW 13.8 mph - N/A   Overcast
6:15 AM 46.4 °F 39.8 °F 26.6 °F 46% 30.06 in 10.0 mi NW 16.1 mph - N/A   Overcast
6:35 AM 44.6 °F 37.8 °F 26.6 °F 49% 30.06 in 10.0 mi NW 15.0 mph 20.7 mph N/A   Mostly Cloudy
6:55 AM 42.8 °F 36.6 °F 26.6 °F 53% 30.06 in 10.0 mi WNW 11.5 mph 18.4 mph N/A   Partly Cloudy
7:15 AM 42.8 °F 37.0 °F 26.6 °F 53% 30.06 in 10.0 mi NW 10.4 mph 19.6 mph N/A   Clear
7:35 AM 42.8 °F 35.8 °F 26.6 °F 53% 30.06 in 10.0 mi NW 13.8 mph - N/A   Clear
7:55 AM 42.8 °F 35.8 °F 26.6 °F 53% 30.07 in 10.0 mi NW 13.8 mph 20.7 mph N/A   Clear
8:15 AM 41.0 °F 34.3 °F 26.6 °F 57% 30.07 in 10.0 mi NW 11.5 mph 17.3 mph N/A   Mostly Cloudy
8:35 AM 41.0 °F 34.3 °F 26.6 °F 57% 30.08 in 10.0 mi NW 11.5 mph - N/A   Scattered Clouds
8:55 AM 42.8 °F 36.6 °F 26.6 °F 53% 30.08 in 10.0 mi NW 11.5 mph 17.3 mph N/A   Clear
9:15 AM 42.8 °F 36.6 °F 26.6 °F 53% 30.08 in 10.0 mi NW 11.5 mph 17.3 mph N/A   Clear
9:35 AM 42.8 °F 34.5 °F 24.8 °F 49% 30.09 in 10.0 mi NW 18.4 mph - N/A   Clear
9:55 AM 42.8 °F 35.1 °F 26.6 °F 53% 30.09 in 10.0 mi NW 16.1 mph 23.0 mph N/A   Clear
10:15 AM 44.6 °F 37.8 °F 26.6 °F 49% 30.09 in 10.0 mi NW 15.0 mph 23.0 mph N/A   Clear
10:35 AM 44.6 °F 37.4 °F 28.4 °F 53% 30.09 in 10.0 mi NW 16.1 mph 24.2 mph N/A   Clear
10:55 AM 46.4 °F 39.2 °F 28.4 °F 50% 30.09 in 10.0 mi NW 18.4 mph 25.3 mph N/A   Clear
11:15 AM 46.4 °F 39.5 °F 28.4 °F 50% 30.08 in 10.0 mi NW 17.3 mph 26.5 mph N/A   Clear
11:35 AM 48.2 °F - 26.6 °F 43% 30.08 in 10.0 mi NW 17.3 mph 27.6 mph N/A   Clear
11:55 AM 48.2 °F - 26.6 °F 43% 30.08 in 10.0 mi NW 16.1 mph 21.9 mph N/A   Clear
12:15 PM 50.0 °F - 26.6 °F 40% 30.07 in 10.0 mi NW 16.1 mph - N/A   Clear
12:35 PM 50.0 °F - 26.6 °F 40% 30.07 in 10.0 mi NW 15.0 mph 24.2 mph N/A   Clear
12:55 PM 50.0 °F - 24.8 °F 37% 30.06 in 10.0 mi NW 18.4 mph 24.2 mph N/A   Scattered Clouds
1:15 PM 51.8 °F - 24.8 °F 35% 30.06 in 10.0 mi NNW 15.0 mph 24.2 mph N/A   Overcast
1:35 PM 51.8 °F - 24.8 °F 35% 30.05 in 10.0 mi NW 13.8 mph 23.0 mph N/A   Overcast
1:55 PM 50.0 °F - 24.8 °F 37% 30.04 in 10.0 mi NW 17.3 mph - N/A   Mostly Cloudy
2:15 PM 50.0 °F - 23.0 °F 35% 30.04 in 10.0 mi NNW 18.4 mph - N/A   Overcast
2:35 PM 50.0 °F - 23.0 °F 35% 30.03 in 10.0 mi NW 16.1 mph 23.0 mph N/A   Overcast
2:55 PM 50.0 °F - 23.0 °F 35% 30.03 in 10.0 mi NW 20.7 mph 27.6 mph N/A   Mostly Cloudy
3:15 PM 46.4 °F 40.1 °F 26.6 °F 46% 30.03 in 9.0 mi West 15.0 mph 21.9 mph N/A   Mostly Cloudy
3:35 PM 48.2 °F - 28.4 °F 46% 30.02 in 10.0 mi NNW 20.7 mph 26.5 mph N/A   Scattered Clouds
3:55 PM 50.0 °F - 24.8 °F 37% 30.02 in 10.0 mi NW 12.7 mph - N/A   Scattered Clouds
4:15 PM 50.0 °F - 23.0 °F 35% 30.02 in 10.0 mi NW 17.3 mph 24.2 mph N/A   Mostly Cloudy
4:35 PM 50.0 °F - 24.8 °F 37% 30.02 in 10.0 mi NW 18.4 mph 24.2 mph N/A   Partly Cloudy
4:55 PM 48.2 °F - 26.6 °F 43% 30.03 in 10.0 mi NNW 20.7 mph 27.6 mph N/A   Clear
5:15 PM 48.2 °F - 28.4 °F 46% 30.03 in 10.0 mi NW 15.0 mph 27.6 mph N/A   Clear
5:35 PM 46.4 °F 39.5 °F 28.4 °F 50% 30.03 in 10.0 mi NW 17.3 mph 25.3 mph N/A   Clear
5:55 PM 44.6 °F 37.4 °F 26.6 °F 49% 30.03 in 10.0 mi NW 16.1 mph - N/A   Clear
6:15 PM 44.6 °F 37.4 °F 24.8 °F 46% 30.03 in 10.0 mi NW 16.1 mph - N/A   Clear
6:35 PM 44.6 °F 37.8 °F 23.0 °F 43% 30.03 in 10.0 mi NW 15.0 mph 25.3 mph N/A   Clear
6:55 PM 44.6 °F 37.2 °F 23.0 °F 43% 30.03 in 10.0 mi NW 17.3 mph 27.6 mph N/A   Partly Cloudy
7:15 PM 44.6 °F 37.8 °F 23.0 °F 43% 30.04 in 10.0 mi NW 15.0 mph 21.9 mph N/A   Partly Cloudy
7:35 PM 42.8 °F 34.8 °F 26.6 °F 53% 30.04 in 10.0 mi NW 17.3 mph 25.3 mph N/A   Clear
7:55 PM 41.0 °F 32.8 °F 26.6 °F 57% 30.05 in 10.0 mi NW 16.1 mph 24.2 mph N/A   Clear
8:15 PM 41.0 °F 32.2 °F 26.6 °F 57% 30.05 in 10.0 mi NW 18.4 mph - N/A   Unknown
8:35 PM 41.0 °F 33.1 °F 26.6 °F 57% 30.05 in 10.0 mi NW 15.0 mph - N/A   Unknown
8:55 PM 39.2 °F 30.8 °F 26.6 °F 61% 30.06 in 10.0 mi NW 15.0 mph 21.9 mph N/A   Unknown
9:15 PM 39.2 °F 30.8 °F 26.6 °F 61% 30.06 in 10.0 mi NW 15.0 mph - N/A   Unknown
9:35 PM 39.2 °F 32.0 °F 26.6 °F 61% 30.07 in 10.0 mi NW 11.5 mph 18.4 mph N/A   Unknown
9:55 PM 39.2 °F 32.0 °F 28.4 °F 65% 30.07 in 10.0 mi WNW 11.5 mph 18.4 mph N/A   Unknown
10:15 PM 39.2 °F 30.8 °F 28.4 °F 65% 30.08 in 10.0 mi NW 15.0 mph - N/A   Unknown
10:35 PM 39.2 °F 30.8 °F 28.4 °F 65% 30.08 in 10.0 mi NW 15.0 mph - N/A   Mostly Cloudy
10:55 PM 37.4 °F 28.2 °F 26.6 °F 65% 30.08 in 10.0 mi NW 16.1 mph - N/A   Partly Cloudy
11:15 PM 37.4 °F 29.3 °F 26.6 °F 65% 30.09 in 10.0 mi NW 12.7 mph - N/A   Mostly Cloudy
11:35 PM 37.4 °F 28.9 °F 26.6 °F 65% 30.10 in 10.0 mi NW 13.8 mph - N/A   Mostly Cloudy
11:55 PM 37.4 °F 29.3 °F 26.6 °F 65% 30.10 in 10.0 mi NW 12.7 mph - N/A   Overcast